Terug naar catalogus

STARLINK-3460

ActiefCommunicatieVLEO
NORAD 51755·PAYLOAD·🇺🇸 United States

Gelanceerd Feb 21, 2022 vanaf Cape Canaveral Space Force Station

Loading…

Volgende Passages (komende 24 uur)

TLE

VersSource: CelesTrak SupGP

Epoch: Sep 14, 2026, 20:58 UTC

1 51755C 22016AT  26257.87409722 -.00029016  00000+0 -85728-3 0  2574
2 51755  53.1572 166.3735 0001371  95.2391   9.8953 15.34404667    15

Volg STARLINK-3460 in realtime met AllMySat

Download on the App Store